Regional Weather Roundup
Issued by NWS

Current Version | Previous Version | Text Only | Print | Product List | Glossary On
Versions: 1 2 3 4 5 6 7 8 9 10 11 12 13 14 15 16 17 18 19 20 21 22 23 24 25 26 27 28 29 30 31 32 33 34 35 36 37 38 39 40 41 42 43 44 45 46 47 48 49 50
000
ASUS43 KBIS 102031
RWRND
NORTH DAKOTA REGIONAL WEATHER ROUNDUP
NATIONAL WEATHER SERVICE EASTERN NORTH DAKOTA/GRAND FORKS ND
200 PM CST WED FEB 10 2016

  NOTE: "FAIR" INDICATES FEW OR NO CLOUDS BELOW 12,000 FEET WITH NO
  SIGNIFICANT WEATHER AND/OR OBSTRUCTIONS TO VISIBILITY.

NDZ001>003-009>011-017-102100-
...NORTHWEST NORTH DAKOTA...

CITY           SKY/WX    TMP DP  RH WIND       PRES   REMARKS
WILLISTON      CLOUDY    31  25  78 N15       30.07R WCI  20
MINOT          CLOUDY    17   7  64 NE5       30.07R WCI  10
MINOT AFB      FLURRIES  14  10  85 N6        30.09R WCI   5
$$

NDZ018>021-031>035-040>046-102100-
...SOUTHWEST NORTH DAKOTA...

CITY           SKY/WX    TMP DP  RH WIND       PRES   REMARKS
BISMARCK       CLOUDY    25  15  66 NE8       30.02R WCI  16
DICKINSON      CLOUDY    37  28  70 N16       29.95R WCI  28
GARRISON         N/A     24  16  71 N10       30.02R WCI  14
HETTINGER      SUNNY     48  31  51 NW22G29   29.96R
$$

NDZ004>008-012>016-024-026-027-054-102100-
...NORTHEAST NORTH DAKOTA...

CITY           SKY/WX    TMP DP  RH WIND       PRES   REMARKS
GRAND FORKS    CLOUDY    10  -1  61 NE9       30.18R WCI  -3
GRAND FORKS AF CLOUDY    10  -2  59 NE7       30.17R WCI  -2
DEVILS LAKE    LGT SNOW   7   2  80 E12       30.12R WCI  -8
$$

NDZ022-023-025-028>030-036>039-047>053-102100-
...SOUTHEAST NORTH DAKOTA...

CITY           SKY/WX    TMP DP  RH WIND       PRES   REMARKS
JAMESTOWN      LGT SNOW   9   5  84 E13       30.07R FOG     WCI  -7
FARGO          CLOUDY    15   2  56 NE5       30.13R WCI   8
WAHPETON       CLOUDY    12   5  73 E6        30.11F WCI   3
$$



USA.gov is the U.S. government's official web portal to all federal, state and local government web resources and services.